Weather History for KCVO - September, 2012

Change the Weather History Date:

Saturday, September 1, 2012

  Actual Average Record
Temperature  
Mean Temperature 60 °F -  
Max Temperature 80 °F 79 °F 98 °F (1998)
Min Temperature 41 °F 50 °F 35 °F (2008)
Degree Days  
Heating Degree Days 4    
Growing Degree Days 10 (Base 50)    
Moisture  
Dew Point 45 °F    
Average Humidity 61    
Maximum Humidity 100    
Minimum Humidity 23    
Precipitation  
Precipitation 0.00 in - - ()
Sea Level Pressure  
Sea Level Pressure 30.11 in    
Wind  
Wind Speed 6 mph (NW)    
Max Wind Speed 16 mph    
Max Gust Speed 17 mph    
Visibility 10 miles    
Events      
Averages and records for this station are not official NWS values.
T = Trace of Precipitation, MM = Missing Value Source: NWS Daily Summary

Daily Weather History Graph

Daily Weather History Graph

Search for Another Location

Airport or City:

Trip Planner

Search our weather history database for the weather conditions in past years. The results will help you decide how hot, cold, wet, or windy it might be!

Date:

Astronomy

Sep. 01, 2012 Rise Set
Actual Time 6:36 AM PDT 7:48 PM PDT
Civil Twilight 6:06 AM PDT 8:18 PM PDT
Nautical Twilight 5:30 AM PDT 8:54 PM PDT
Astronomical Twilight 4:52 AM PDT 9:32 PM PDT
Moon 8:01 PM PDT (9/1) 7:55 AM PDT (9/1)
Length of Visible Light 14h 11m
Length of Day
13h 12m
Full, 98% of the Moon is Illuminated
Sep 1
Full
Sep 8
Last Quarter
Sep 15
New
Sep 22
First Quarter
Sep 29
Full

Hourly Weather History & Observations

Time (PDT) Temp. Windchill Dew Point Humidity Pressure Visibility Wind Dir Wind Speed Gust Speed Precip Events Conditions
12:15 AM 53.6 °F - 48.2 °F 82% 30.03 in 10.0 mi West 8.1 mph - N/A   Clear
12:35 AM 53.6 °F - 48.2 °F 82% 30.03 in 10.0 mi West 4.6 mph - N/A   Clear
12:55 AM 53.6 °F - 48.2 °F 82% 30.03 in 10.0 mi West 6.9 mph - N/A   Clear
1:15 AM 53.6 °F - 48.2 °F 82% 30.04 in 10.0 mi West 6.9 mph - N/A   Clear
1:35 AM 53.6 °F - 48.2 °F 82% 30.04 in 10.0 mi West 6.9 mph - N/A   Clear
1:55 AM 53.6 °F - 48.2 °F 82% 30.05 in 10.0 mi WNW 6.9 mph - N/A   Clear
2:15 AM 53.6 °F - 48.2 °F 82% 30.05 in 10.0 mi WNW 5.8 mph - N/A   Clear
2:35 AM 53.6 °F - 48.2 °F 82% 30.05 in 10.0 mi WNW 4.6 mph - N/A   Clear
2:55 AM 51.8 °F - 48.2 °F 88% 30.06 in 10.0 mi WNW 3.5 mph - N/A   Clear
3:15 AM 51.8 °F - 46.4 °F 82% 30.07 in 10.0 mi WNW 4.6 mph - N/A   Clear
3:35 AM 51.8 °F - 46.4 °F 82% 30.07 in 10.0 mi Calm Calm - N/A   Clear
3:55 AM 50.0 °F - 46.4 °F 87% 30.07 in 10.0 mi Calm Calm - N/A   Clear
4:15 AM 50.0 °F - 46.4 °F 87% 30.08 in 10.0 mi Calm Calm - N/A   Clear
4:35 AM 48.2 °F - 46.4 °F 93% 30.08 in 10.0 mi Calm Calm - N/A   Clear
4:55 AM 44.6 °F - 42.8 °F 93% 30.08 in 10.0 mi Calm Calm - N/A   Clear
5:15 AM 42.8 °F 41.1 °F 39.2 °F 87% 30.08 in 10.0 mi South 3.5 mph - N/A   Clear
5:35 AM 42.8 °F - 39.2 °F 87% 30.09 in 10.0 mi Calm Calm - N/A   Clear
5:55 AM 42.8 °F - 39.2 °F 87% 30.10 in 10.0 mi Calm Calm - N/A   Clear
6:15 AM 41.0 °F - 39.2 °F 93% 30.10 in 10.0 mi Calm Calm - N/A   Clear
6:35 AM 41.0 °F 39.0 °F 39.2 °F 93% 30.11 in 10.0 mi WSW 3.5 mph - N/A   Clear
6:55 AM 42.8 °F 41.1 °F 39.2 °F 87% 30.11 in 10.0 mi SW 3.5 mph - N/A   Clear
7:15 AM 42.8 °F - 42.8 °F 100% 30.12 in 10.0 mi Calm Calm - N/A   Clear
7:35 AM 46.4 °F - 44.6 °F 93% 30.13 in 10.0 mi Calm Calm - N/A   Clear
7:55 AM 48.2 °F - 46.4 °F 93% 30.12 in 10.0 mi Calm Calm - N/A   Clear
8:15 AM 51.8 °F - 48.2 °F 88% 30.13 in 10.0 mi Calm Calm - N/A   Clear
8:35 AM 53.6 °F - 48.2 °F 82% 30.13 in 10.0 mi Calm Calm - N/A   Clear
8:55 AM 55.4 °F - 48.2 °F 77% 30.14 in 10.0 mi Calm Calm - N/A   Clear
9:15 AM 57.2 °F - 46.4 °F 67% 30.14 in 10.0 mi Calm Calm - N/A   Clear
9:35 AM 59.0 °F - 48.2 °F 67% 30.15 in 10.0 mi Calm Calm - N/A   Clear
9:55 AM 62.6 °F - 48.2 °F 59% 30.15 in 10.0 mi NNE 5.8 mph - N/A   Clear
10:15 AM 64.4 °F - 48.2 °F 56% 30.15 in 10.0 mi Calm Calm - N/A   Clear
10:35 AM 64.4 °F - 48.2 °F 56% 30.15 in 10.0 mi NNE 4.6 mph - N/A   Clear
11:15 AM 66.2 °F - 48.2 °F 52% 30.15 in 10.0 mi NNE 8.1 mph - N/A   Clear
11:35 AM 66.2 °F - 46.4 °F 49% 30.15 in 10.0 mi Calm Calm - N/A   Clear
11:55 AM 69.8 °F - 46.4 °F 43% 30.15 in 10.0 mi NNE 3.5 mph - N/A   Clear
12:15 PM 69.8 °F - 46.4 °F 43% 30.15 in 10.0 mi Calm Calm - N/A   Clear
12:35 PM 71.6 °F - 46.4 °F 41% 30.14 in 10.0 mi WNW 5.8 mph - N/A   Clear
12:55 PM 73.4 °F - 44.6 °F 36% 30.14 in 10.0 mi ENE 5.8 mph - N/A   Clear
1:15 PM 73.4 °F - 44.6 °F 36% 30.13 in 10.0 mi NW 5.8 mph - N/A   Clear
1:35 PM 73.4 °F - 46.4 °F 38% 30.13 in 10.0 mi NW 6.9 mph - N/A   Clear
1:55 PM 73.4 °F - 44.6 °F 36% 30.13 in 5.0 mi NW 6.9 mph - N/A   Clear
2:15 PM 75.2 °F - 44.6 °F 34% 30.13 in 10.0 mi North 5.8 mph - N/A   Clear
2:35 PM 78.8 °F - 44.6 °F 30% 30.12 in 10.0 mi Calm Calm - N/A   Clear
2:55 PM 78.8 °F - 42.8 °F 28% 30.12 in 10.0 mi North 5.8 mph - N/A   Clear
3:15 PM 78.8 °F - 41.0 °F 26% 30.11 in 10.0 mi NNE 11.5 mph - N/A   Clear
3:35 PM 78.8 °F - 39.2 °F 24% 30.11 in 10.0 mi NNE 5.8 mph - N/A   Clear
3:55 PM 80.6 °F - 39.2 °F 23% 30.10 in 10.0 mi NE 4.6 mph - N/A   Clear
4:15 PM 80.6 °F - 39.2 °F 23% 30.10 in 10.0 mi North 3.5 mph - N/A   Clear
4:35 PM 80.6 °F - 39.2 °F 23% 30.10 in 10.0 mi ENE 9.2 mph - N/A   Clear
4:55 PM 80.6 °F - 39.2 °F 23% 30.10 in 10.0 mi NE 4.6 mph - N/A   Clear
5:15 PM 80.6 °F - 41.0 °F 24% 30.09 in 10.0 mi NNE 8.1 mph - N/A   Clear
5:35 PM 80.6 °F - 39.2 °F 23% 30.09 in 10.0 mi NE 8.1 mph - N/A   Clear
5:55 PM 80.6 °F - 39.2 °F 23% 30.09 in 10.0 mi NNE 10.4 mph - N/A   Clear
6:15 PM 77.0 °F - 48.2 °F 36% 30.10 in 10.0 mi WNW 13.8 mph - N/A   Clear
6:35 PM 73.4 °F - 48.2 °F 41% 30.10 in 10.0 mi WNW 12.7 mph - N/A   Clear
6:55 PM 71.6 °F - 48.2 °F 43% 30.10 in 10.0 mi WNW 16.1 mph - N/A   Clear
7:15 PM 69.8 °F - 48.2 °F 46% 30.11 in 10.0 mi WNW 15.0 mph - N/A   Clear
7:35 PM 66.2 °F - 46.4 °F 49% 30.11 in 10.0 mi WNW 11.5 mph - N/A   Clear
7:55 PM 64.4 °F - 46.4 °F 52% 30.12 in 10.0 mi West 11.5 mph - N/A   Clear
8:15 PM 62.6 °F - 44.6 °F 52% 30.12 in 10.0 mi WNW 13.8 mph - N/A   Clear
8:35 PM 62.6 °F - 46.4 °F 55% 30.12 in 10.0 mi WNW 13.8 mph - N/A   Clear
8:55 PM 60.8 °F - 46.4 °F 59% 30.13 in 10.0 mi West 13.8 mph - N/A   Clear
9:15 PM 60.8 °F - 46.4 °F 59% 30.13 in 10.0 mi West 13.8 mph - N/A   Clear
9:35 PM 60.8 °F - 46.4 °F 59% 30.13 in 10.0 mi West 13.8 mph - N/A   Clear
9:55 PM 57.2 °F - 48.2 °F 72% 30.13 in 10.0 mi West 11.5 mph - N/A   Clear
10:15 PM 57.2 °F - 46.4 °F 67% 30.13 in 10.0 mi West 12.7 mph - N/A   Clear
10:35 PM 57.2 °F - 46.4 °F 67% 30.13 in 10.0 mi West 10.4 mph - N/A   Clear
10:55 PM 57.2 °F - 48.2 °F 72% 30.13 in 10.0 mi West 12.7 mph - N/A   Clear
11:15 PM 57.2 °F - 48.2 °F 72% 30.14 in 10.0 mi WNW 13.8 mph - N/A   Clear
11:35 PM 57.2 °F - 48.2 °F 72% 30.15 in 10.0 mi WNW 12.7 mph 17.3 mph N/A   Clear
11:55 PM 57.2 °F - 48.2 °F 72% 30.15 in 10.0 mi WNW 11.5 mph - N/A   Clear